Location: Gorze? G�rny
(49.8500°N, 19.5000°E)
Time: 12:33:48
(UTC+00:00)

Cosmos 1933 Rocket - Pass Details

Date: 13 May 2021
Orbit: 607 x 630 km, 82.5° (Epoch: 22 June)

Event Time Altitude Azimuth Distance (km) Brightness Sun altitude
Rises 19:55:44 0° 347° (NNW) 2,880 8.2 -12.7°
Reaches altitude 10° 19:57:58 10° 345° (NNW) 1,970 7.3 -12.9°
Maximum altitude 20:02:17 68° 264° (W) 658 3.8 -13.4°
Enters shadow 20:05:53 15° 182° (S) 1,678 5.3 -13.7°
